Location: Columbia
(38.9520°N, 92.3340°W)
Time: 23:39:58
(UTC-05:00)

Iridium 22 - Visible Passes

Search period start: 26 April 2018 00:00
Search period end: 06 May 2018 00:00
Orbit: 776 x 779 km, 86.4° (Epoch: 26 April)

Date Brightness Start Highest point End Pass type
(mag) Time Alt. Az. Time Alt. Az. Time Alt. Az.
27 Apr 8.6 20:27:49 10° WSW 20:31:11 17° WNW 20:34:33 10° NW visible
28 Apr 8.9 05:18:23 10° NE 05:20:38 13° ENE 05:22:54 10° E visible
30 Apr 9.2 20:29:39 10° W 20:31:25 12° WNW 20:33:11 10° NW visible
01 May 8.4 05:17:16 10° NNE 05:20:53 19° ENE 05:24:28 10° ESE visible
04 May 7.9 05:16:41 10° NNE 05:21:03 27° E 05:25:25 10° SE visible
05 May 8.5 04:44:23 10° NE 04:47:12 14° ENE 04:50:01 10° ESE visible
